Regional Weather Roundup
Issued by NWS

Home | Current Version | Previous Version | Graphics & Text | Print | Product List | Glossary On
Versions: 1 2 3 4 5 6 7 8 9 10 11 12 13 14 15 16 17 18 19 20 21 22 23 24 25 26 27 28 29 30 31 32 33 34 35 36 37 38 39 40 41 42 43 44 45 46 47 48 49 50
000
ASUS43 KDMX 030806
RWRIA

WEATHER ROUNDUP FOR IOWA
NATIONAL WEATHER SERVICE DES MOINES IA
200 AM CST SAT DEC 03 2016

NOTE: "FAIR" INDICATES FEW OR NO CLOUDS BELOW 12,000 FEET WITH NO
SIGNIFICANT WEATHER AND/OR OBSTRUCTIONS TO VISIBILITY.

* - THESE STATIONS ARE NOT NWS STATIONS...THUS NOT UNDER NWS
QUALITY CONTROL.  THEY ALSO DO NOT REPORT WEATHER SUCH
AS PRECIPITATION OR FOG.

IAZ001>003-012>014-020>022-031>034-043>046-030900-
   NORTHWEST IOWA

CITY           SKY/WX    TMP DP  RH WIND       PRES   REMARKS
CHEROKEE *     CLOUDY    32  30  95 CALM      30.32R
LE MARS *      CLOUDY    30  28  93 S5        30.34R WCI  25
ORANGE CITY *  CLOUDY    30  28  93 CALM      30.31R
SIOUX CITY     PTCLDY    26  22  84 W5        30.35R WCI  20
SPENCER        CLOUDY    31  27  85 SW8       30.30S WCI  23
STORM LAKE *   CLOUDY    32  28  86 S6        30.31R WCI  26
$$

IAZ055>058-069>071-079>083-090>094-030900-
   SOUTHWEST IOWA

CITY           SKY/WX    TMP DP  RH WIND       PRES   REMARKS
ATLANTIC *     CLOUDY    32  28  86 SW6       30.36R WCI  26
CLARINDA *       N/A     23  23 100 CALM      30.38F FOG
COUNCIL BLFS * CLEAR     28  28 100 SW5       30.35S WCI  23
HARLAN  *      CLOUDY    30  28  93 SW5       30.38S WCI  25
$$

IAZ047>049-059>061-072>074-084-030900-
   CENTRAL IOWA

CITY           SKY/WX    TMP DP  RH WIND       PRES   REMARKS
AMES           CLOUDY    33  30  88 S6        30.35  WCI  28
ANKENY *       CLOUDY    34  34 100 CALM      30.37S
DES MOINES     CLOUDY    36  31  82 S5        30.36S WCI  32
GRINNELL*      CLOUDY    32  29  89 CALM      30.37R
MARSHALLTOWN   CLOUDY    32  29  88 S3        30.35R
NEWTON *       CLOUDY    32  30  93 SE5       30.35S WCI  27
PELLA *        CLOUDY    34  31  89 CALM      30.38S
PERRY *        CLOUDY    35  34  95 S6        30.35R WCI  30
$$

IAZ004>006-015-016-023>025-035-036-030900-
   NORTH CENTRAL IOWA

CITY           SKY/WX    TMP DP  RH WIND       PRES   REMARKS
ALGONA *       CLOUDY    32  27  80 S7        30.30S WCI  26
CLARION *      CLOUDY    32  30  93 SW5       30.32R WCI  27
ESTHERVILLE    CLOUDY    29  23  78 NW7       30.29S WCI  22
FOREST CITY *  CLOUDY    30  27  86 NW3       30.31R
IOWA FALLS *   CLOUDY    32  28  85 S5        30.34R WCI  28
$$

IAZ007>011-017>019-026>030-037>042-050>054-066-030900-
   NORTHEAST IOWA

CITY           SKY/WX    TMP DP  RH WIND       PRES   REMARKS
CEDAR RAPIDS   CLOUDY    32  26  78 NW13      30.36R WCI  22
CHARLES CITY * CLOUDY    30  25  80 CALM      30.32R
CLINTON *      CLOUDY    32  27  81 NW8       30.36  WCI  25
DUBUQUE        CLOUDY    30  23  75 N6        30.31S WCI  24
MONTICELLO *   CLOUDY    32  25  74 NW6       30.35R WCI  26
OELWEIN *      CLOUDY    30  27  86 W8        30.33R WCI  23
WATERLOO       CLOUDY    31  23  72 NW3       30.34R
$$

IAZ064-065-067-068-078-030900-
   EAST CENTRAL IOWA

CITY           SKY/WX    TMP DP  RH WIND       PRES   REMARKS
DAVENPORT      CLOUDY    32  26  78 W8        30.37R WCI  25
IOWA CITY      CLOUDY    33  28  81 W6        30.40R WCI  28
MUSCATINE *    CLOUDY    32  28  86 CALM      30.39R
QUAD CITIES    CLOUDY    34  25  69 W5        30.37R WCI  30
$$

IAZ062-063-075>077-085>089-095>099-030900-
   SOUTHEAST IOWA

CITY           SKY/WX    TMP DP  RH WIND       PRES   REMARKS
FAIRFIELD *    CLOUDY    34  28  80 CALM      30.37S
FORT MADISON * CLOUDY    36  30  80 CALM      30.39R
OSKALOOSA *    CLOUDY    33  30  90 CALM      30.38S
CENTERVILLE *  CLOUDY    32  30  93 CALM      30.37F
$$

ABBREVIATIONS USED IN REMARKS
   TC - TEMPERATURES IN CELSIUS
  WCI - WIND CHILL INDEX
   HX - HEAT INDEX
  VSB - VISIBILITY
$$





USA.gov is the U.S. government's official web portal to all federal, state and local government web resources and services.